Time,TemperatureF,DewpointF,PressureIn,WindDirection,WindDirectionDegrees,WindSpeedMPH,WindSpeedGustMPH,Humidity,HourlyPrecipIn,Conditions,Clouds,dailyrainin,SoftwareType,DateUTC
2013-01-22 00:00:00,60.0,33.0,30.03,South,180,0.0,0.0,36,0.00,,,0.00,,2013-01-22 08:00:00,
2013-01-22 00:01:00,60.0,31.0,30.03,South,180,0.0,0.0,33,0.00,,,0.00,,2013-01-22 08:01:00,
2013-01-22 00:11:00,60.0,31.0,30.03,South,180,0.0,0.0,33,0.00,,,0.00,,2013-01-22 08:11:00,
2013-01-22 00:22:00,60.0,33.0,30.03,South,180,0.0,0.0,36,0.00,,,0.00,,2013-01-22 08:22:00,
2013-01-22 00:32:00,60.0,33.0,30.03,South,180,0.0,0.0,36,0.00,,,0.00,,2013-01-22 08:32:00,
2013-01-22 00:42:00,60.0,33.0,30.03,South,180,0.0,0.0,36,0.00,,,0.00,,2013-01-22 08:42:00,
2013-01-22 00:52:00,60.0,33.0,30.03,South,180,0.0,0.0,36,0.00,,,0.00,,2013-01-22 08:52:00,
2013-01-22 03:02:00,57.0,41.0,30.02,South,180,0.0,0.0,56,0.00,,,0.00,,2013-01-22 11:02:00,
2013-01-22 03:22:00,56.0,36.0,30.02,South,180,0.0,0.0,46,0.00,,,0.00,,2013-01-22 11:22:00,
2013-01-22 03:32:00,56.0,40.0,30.02,South,180,0.0,0.0,54,0.00,,,0.00,,2013-01-22 11:32:00,
2013-01-22 03:53:00,57.0,27.0,30.01,South,180,0.0,0.0,32,0.00,,,0.00,,2013-01-22 11:53:00,
2013-01-22 04:02:00,58.0,30.0,30.01,South,180,0.0,0.0,34,0.00,,,0.00,,2013-01-22 12:02:00,
2013-01-22 04:11:00,58.0,30.0,30.01,South,180,0.0,0.0,34,0.00,,,0.00,,2013-01-22 12:11:00,
2013-01-22 04:22:00,57.0,27.0,30.01,South,180,0.0,0.0,32,0.00,,,0.00,,2013-01-22 12:22:00,
2013-01-22 04:32:00,57.0,27.0,30.01,South,180,0.0,0.0,32,0.00,,,0.00,,2013-01-22 12:32:00,
2013-01-22 04:42:00,58.0,26.0,30.01,South,180,0.0,0.0,29,0.00,,,0.00,,2013-01-22 12:42:00,
2013-01-22 04:53:00,57.0,29.0,30.01,South,180,0.0,0.0,34,0.00,,,0.00,,2013-01-22 12:53:00,
2013-01-22 05:02:00,57.0,31.0,30.01,South,180,0.0,0.0,37,0.00,,,0.00,,2013-01-22 13:02:00,
2013-01-22 05:11:00,57.0,31.0,30.01,South,180,0.0,0.0,37,0.00,,,0.00,,2013-01-22 13:11:00,
2013-01-22 05:22:00,56.0,37.0,30.01,South,180,0.0,0.0,48,0.00,,,0.00,,2013-01-22 13:22:00,
2013-01-22 05:32:00,57.0,32.0,30.01,South,180,0.0,0.0,38,0.00,,,0.00,,2013-01-22 13:32:00,
2013-01-22 05:42:00,57.0,32.0,30.01,South,180,0.0,0.0,38,0.00,,,0.00,,2013-01-22 13:42:00,
2013-01-22 05:52:00,56.0,33.0,30.02,South,180,0.0,0.0,41,0.00,,,0.00,,2013-01-22 13:52:00,
2013-01-22 06:02:00,56.0,29.0,30.02,South,180,0.0,0.0,35,0.00,,,0.00,,2013-01-22 14:02:00,
2013-01-22 06:12:00,56.0,29.0,30.02,South,180,0.0,0.0,35,0.00,,,0.00,,2013-01-22 14:12:00,
2013-01-22 06:22:00,57.0,27.0,30.03,South,180,0.0,0.0,32,0.00,,,0.00,,2013-01-22 14:22:00,
2013-01-22 06:33:00,57.0,27.0,30.03,South,180,0.0,0.0,31,0.00,,,0.00,,2013-01-22 14:33:00,
2013-01-22 06:42:00,57.0,27.0,30.03,South,180,0.0,0.0,31,0.00,,,0.00,,2013-01-22 14:42:00,
2013-01-22 06:53:00,57.0,25.0,30.03,South,180,0.0,0.0,29,0.00,,,0.00,,2013-01-22 14:53:00,
2013-01-22 07:02:00,58.0,27.0,30.03,South,180,0.0,0.0,30,0.00,,,0.00,,2013-01-22 15:02:00,
2013-01-22 07:12:00,58.0,27.0,30.03,South,180,0.0,0.0,30,0.00,,,0.00,,2013-01-22 15:12:00,
2013-01-22 07:22:00,58.0,27.0,30.03,South,180,0.0,0.0,30,0.00,,,0.00,,2013-01-22 15:22:00,
2013-01-22 07:33:00,57.0,25.0,30.02,South,180,0.0,0.0,29,0.00,,,0.00,,2013-01-22 15:33:00,
2013-01-22 07:42:00,57.0,25.0,30.02,South,180,0.0,0.0,29,0.00,,,0.00,,2013-01-22 15:42:00,
2013-01-22 07:53:00,58.0,31.0,30.03,South,180,0.0,0.0,35,0.00,,,0.00,,2013-01-22 15:53:00,
2013-01-22 08:03:00,58.0,28.0,30.03,South,180,0.0,0.0,31,0.00,,,0.00,,2013-01-22 16:03:00,
2013-01-22 08:12:00,58.0,28.0,30.03,South,180,0.0,0.0,31,0.00,,,0.00,,2013-01-22 16:12:00,
2013-01-22 08:22:00,58.0,32.0,30.03,South,180,0.0,0.0,37,0.00,,,0.00,,2013-01-22 16:22:00,
2013-01-22 08:32:00,59.0,28.0,30.04,South,180,0.0,0.0,30,0.00,,,0.00,,2013-01-22 16:32:00,
2013-01-22 08:42:00,59.0,28.0,30.04,South,180,0.0,0.0,30,0.00,,,0.00,,2013-01-22 16:42:00,
2013-01-22 08:53:00,60.0,26.0,30.04,South,180,0.0,0.0,27,0.00,,,0.00,,2013-01-22 16:53:00,
2013-01-22 09:02:00,61.0,29.0,30.04,South,180,0.0,0.0,29,0.00,,,0.00,,2013-01-22 17:02:00,
2013-01-22 09:12:00,61.0,29.0,30.04,South,180,0.0,0.0,29,0.00,,,0.00,,2013-01-22 17:12:00,
2013-01-22 09:22:00,61.0,30.0,30.05,South,180,0.0,0.0,31,0.00,,,0.00,,2013-01-22 17:22:00,
2013-01-22 09:32:00,62.0,29.0,30.05,South,180,0.0,0.0,29,0.00,,,0.00,,2013-01-22 17:32:00,
2013-01-22 09:43:00,62.0,29.0,30.05,South,180,0.0,0.0,29,0.00,,,0.00,,2013-01-22 17:43:00,
2013-01-22 09:53:00,63.0,30.0,30.06,South,180,0.0,0.0,29,0.00,,,0.00,,2013-01-22 17:53:00,
2013-01-22 10:02:00,65.0,32.0,30.06,South,180,0.0,0.0,29,0.00,,,0.00,,2013-01-22 18:02:00,
2013-01-22 10:12:00,65.0,32.0,30.06,South,180,0.0,0.0,29,0.00,,,0.00,,2013-01-22 18:12:00,
2013-01-22 10:33:00,66.0,32.0,30.06,South,180,0.0,0.0,28,0.00,,,0.00,,2013-01-22 18:33:00,
2013-01-22 10:53:00,67.0,35.0,30.06,South,180,0.0,0.0,30,0.00,,,0.00,,2013-01-22 18:53:00,
2013-01-22 11:02:00,68.0,31.0,30.05,South,180,0.0,0.0,25,0.00,,,0.00,,2013-01-22 19:02:00,
2013-01-22 11:22:00,70.0,28.0,30.04,South,180,0.0,0.0,21,0.00,,,0.00,,2013-01-22 19:22:00,
2013-01-22 11:32:00,70.0,25.0,30.03,South,180,0.0,0.0,18,0.00,,,0.00,,2013-01-22 19:32:00,
2013-01-22 11:53:00,71.0,23.0,30.02,South,180,0.0,0.0,16,0.00,,,0.00,,2013-01-22 19:53:00,
2013-01-22 12:02:00,72.0,23.0,30.01,South,180,0.0,0.0,16,0.00,,,0.00,,2013-01-22 20:02:00,
2013-01-22 12:12:00,72.0,23.0,30.01,South,180,0.0,0.0,16,0.00,,,0.00,,2013-01-22 20:12:00,
2013-01-22 12:22:00,73.0,26.0,30.00,South,180,0.0,0.0,17,0.00,,,0.00,,2013-01-22 20:22:00,
2013-01-22 12:33:00,73.0,26.0,30.00,South,180,0.0,0.0,17,0.00,,,0.00,,2013-01-22 20:33:00,
2013-01-22 12:42:00,73.0,26.0,30.00,South,180,0.0,0.0,17,0.00,,,0.00,,2013-01-22 20:42:00,
2013-01-22 12:53:00,73.0,27.0,30.00,South,180,0.0,0.0,18,0.00,,,0.00,,2013-01-22 20:53:00,
2013-01-22 13:02:00,74.0,26.0,30.00,South,180,0.0,0.0,17,0.00,,,0.00,,2013-01-22 21:02:00,
2013-01-22 13:12:00,74.0,26.0,30.00,South,180,0.0,0.0,17,0.00,,,0.00,,2013-01-22 21:12:00,
2013-01-22 13:22:00,75.0,27.0,30.00,South,180,0.0,0.0,17,0.00,,,0.00,,2013-01-22 21:22:00,
2013-01-22 13:33:00,75.0,27.0,29.99,South,180,0.0,0.0,17,0.00,,,0.00,,2013-01-22 21:33:00,
2013-01-22 13:42:00,75.0,27.0,29.99,South,180,0.0,0.0,17,0.00,,,0.00,,2013-01-22 21:42:00,
2013-01-22 13:53:00,77.0,29.0,30.00,South,180,0.0,0.0,17,0.00,,,0.00,,2013-01-22 21:53:00,
2013-01-22 14:02:00,77.0,27.0,30.00,South,180,0.0,0.0,16,0.00,,,0.00,,2013-01-22 22:02:00,
2013-01-22 14:22:00,77.0,27.0,30.01,South,180,0.0,0.0,16,0.00,,,0.00,,2013-01-22 22:22:00,
2013-01-22 14:42:00,77.0,27.0,30.01,South,180,0.0,0.0,16,0.00,,,0.00,,2013-01-22 22:42:00,
2013-01-22 14:53:00,76.0,28.0,30.01,South,180,0.0,0.0,17,0.00,,,0.00,,2013-01-22 22:53:00,
2013-01-22 15:02:00,76.0,28.0,30.01,South,180,0.0,0.0,17,0.00,,,0.00,,2013-01-22 23:02:00,
2013-01-22 15:22:00,76.0,27.0,29.98,South,180,0.0,0.0,16,0.00,,,0.00,,2013-01-22 23:22:00,
2013-01-22 15:32:00,75.0,38.0,30.02,South,180,0.0,0.0,26,0.00,,,0.00,,2013-01-22 23:32:00,
2013-01-22 15:52:00,74.0,47.0,30.03,South,180,0.0,0.0,39,0.00,,,0.00,,2013-01-22 23:52:00,
2013-01-22 16:02:00,72.0,49.0,30.03,South,180,0.0,0.0,45,0.00,,,0.00,,2013-01-23 00:02:00,
2013-01-22 16:22:00,70.0,50.0,30.02,South,180,0.0,0.0,50,0.00,,,0.00,,2013-01-23 00:22:00,
2013-01-22 16:32:00,69.0,51.0,30.02,South,180,0.0,0.0,53,0.00,,,0.00,,2013-01-23 00:32:00,
2013-01-22 17:02:00,66.0,50.0,30.03,South,180,0.0,0.0,56,0.00,,,0.00,,2013-01-23 01:02:00,
2013-01-22 17:32:00,65.0,52.0,30.03,South,180,0.0,0.0,63,0.00,,,0.00,,2013-01-23 01:32:00,
2013-01-22 17:52:00,63.0,51.0,30.03,South,180,0.0,0.0,64,0.00,,,0.00,,2013-01-23 01:52:00,
2013-01-22 18:02:00,63.0,50.0,30.03,South,180,0.0,0.0,63,0.00,,,0.00,,2013-01-23 02:02:00,
2013-01-22 18:12:00,63.0,50.0,30.03,South,180,0.0,0.0,63,0.00,,,0.00,,2013-01-23 02:12:00,
2013-01-22 18:22:00,63.0,51.0,30.03,South,180,0.0,0.0,64,0.00,,,0.00,,2013-01-23 02:22:00,
2013-01-22 18:32:00,63.0,51.0,30.03,South,180,0.0,0.0,65,0.00,,,0.00,,2013-01-23 02:32:00,
2013-01-22 18:42:00,63.0,51.0,30.03,South,180,0.0,0.0,65,0.00,,,0.00,,2013-01-23 02:42:00,
2013-01-22 18:52:00,62.0,51.0,30.03,South,180,0.0,0.0,68,0.00,,,0.00,,2013-01-23 02:52:00,
2013-01-22 19:02:00,62.0,51.0,30.03,South,180,0.0,0.0,67,0.00,,,0.00,,2013-01-23 03:02:00,
2013-01-22 19:22:00,62.0,45.0,30.03,South,180,0.0,0.0,54,0.00,,,0.00,,2013-01-23 03:22:00,
2013-01-22 19:32:00,63.0,45.0,30.03,South,180,0.0,0.0,51,0.00,,,0.00,,2013-01-23 03:32:00,
2013-01-22 19:42:00,63.0,45.0,30.03,South,180,0.0,0.0,51,0.00,,,0.00,,2013-01-23 03:42:00,
2013-01-22 19:53:00,64.0,45.0,30.03,South,180,0.0,0.0,50,0.00,,,0.00,,2013-01-23 03:53:00,
2013-01-22 20:02:00,64.0,45.0,30.03,South,180,0.0,0.0,51,0.00,,,0.00,,2013-01-23 04:02:00,
2013-01-22 20:12:00,64.0,45.0,30.03,South,180,0.0,0.0,51,0.00,,,0.00,,2013-01-23 04:12:00,
2013-01-22 20:22:00,64.0,40.0,30.03,South,180,0.0,0.0,42,0.00,,,0.00,,2013-01-23 04:22:00,
2013-01-22 20:32:00,64.0,41.0,30.03,South,180,0.0,0.0,43,0.00,,,0.00,,2013-01-23 04:32:00,
2013-01-22 20:43:00,64.0,41.0,30.03,South,180,0.0,0.0,43,0.00,,,0.00,,2013-01-23 04:43:00,
2013-01-22 20:52:00,64.0,43.0,30.03,South,180,0.0,0.0,46,0.00,,,0.00,,2013-01-23 04:52:00,
2013-01-22 21:03:00,63.0,42.0,30.03,South,180,0.0,0.0,47,0.00,,,0.00,,2013-01-23 05:03:00,
2013-01-22 21:12:00,63.0,42.0,30.03,South,180,0.0,0.0,47,0.00,,,0.00,,2013-01-23 05:12:00,
2013-01-22 21:22:00,63.0,45.0,30.04,South,180,0.0,0.0,51,0.00,,,0.00,,2013-01-23 05:22:00,
2013-01-22 21:32:00,62.0,45.0,30.04,South,180,0.0,0.0,53,0.00,,,0.00,,2013-01-23 05:32:00,
2013-01-22 21:52:00,62.0,39.0,30.04,South,180,0.0,0.0,43,0.00,,,0.00,,2013-01-23 05:52:00,
2013-01-22 22:02:00,64.0,37.0,30.04,South,180,0.0,0.0,37,0.00,,,0.00,,2013-01-23 06:02:00,
2013-01-22 22:12:00,64.0,37.0,30.04,South,180,0.0,0.0,37,0.00,,,0.00,,2013-01-23 06:12:00,
2013-01-22 22:22:00,64.0,35.0,30.04,South,180,0.0,0.0,34,0.00,,,0.00,,2013-01-23 06:22:00,
2013-01-22 22:32:00,64.0,37.0,30.03,South,180,0.0,0.0,36,0.00,,,0.00,,2013-01-23 06:32:00,
2013-01-22 22:42:00,64.0,37.0,30.03,South,180,0.0,0.0,36,0.00,,,0.00,,2013-01-23 06:42:00,
2013-01-22 22:52:00,64.0,38.0,30.03,South,180,0.0,0.0,38,0.00,,,0.00,,2013-01-23 06:52:00,
2013-01-22 23:02:00,64.0,36.0,30.03,South,180,0.0,0.0,35,0.00,,,0.00,,2013-01-23 07:02:00,
2013-01-22 23:11:00,64.0,36.0,30.03,South,180,0.0,0.0,35,0.00,,,0.00,,2013-01-23 07:11:00,
2013-01-22 23:22:00,64.0,35.0,30.03,South,180,0.0,0.0,34,0.00,,,0.00,,2013-01-23 07:22:00,
2013-01-22 23:32:00,64.0,35.0,30.03,South,180,0.0,0.0,34,0.00,,,0.00,,2013-01-23 07:32:00,
2013-01-22 23:42:00,64.0,35.0,30.03,South,180,0.0,0.0,34,0.00,,,0.00,,2013-01-23 07:42:00,
2013-01-22 23:52:00,64.0,37.0,30.03,South,180,0.0,0.0,37,0.00,,,0.00,,2013-01-23 07:52:00,